Home > Weather > Lehrte > Past weeks

Flag for Germany Weather for the Past 2 Weeks in Lehrte, Lower Saxony, Germany

Now
48 °F

Scattered clouds.


Feels Like: 45 °F
Forecast: 38 / 62 °F
Wind: 7 mph from Northwest

Location: Hannover

Current Time: May 4, 2016 at 11:10:38 AM

Latest Report: May 4, 2016 at 10:20 AM


Visibility: N/A

Pressure: 30.39 "Hg

Humidity: 76%

Dew Point: 41 °F

Location of LehrteLocation

Historic Weather in Lehrte — Graph

°F

Lehrte Temperature Yesterday

Maximum temperature yesterday: 55 °F (at 12:20 AM)
Minimum temperature yesterday: 41 °F (at 11:50 PM)
Average temperature yesterday: 50 °F

High & Low Weather Summary for the Past Weeks

 TemperatureHumidityPressure
High68 °F (May 2, 3:50 PM)100% (Apr 21, 1:50 AM)30.45 "Hg (Apr 21, 1:50 AM)
Low30 °F (Apr 25, 1:20 AM)26% (May 2, 3:20 PM)29.42 "Hg (Apr 26, 10:50 AM)
Average45 °F77%30.00 "Hg
* Reported Apr 19 9:20 AM — May 4 9:50 AM, Lehrte, Weather by CustomWeather, © 2016

Note: Actual official high and low records may vary slightly from our data, if they occured in-between our weather recording intervals... More about our weather records

Advertising

Lehrte Weather History for the Previous 24 Hours

Scroll right to see more
 ConditionsComfort  
Time TempWeatherWind HumidityBarometerVisibility
9:50 AM
Wed, May 4
48 °FScattered clouds.6 mph76%30.42 "HgN/A
9:20 AM46 °FScattered clouds.7 mph87%30.39 "HgN/A
8:20 AM43 °FPartly sunny.7 mph93%30.39 "HgN/A
7:20 AM39 °FPartly sunny.5 mph100%30.39 "Hg6 mi
6:20 AM36 °FFog.3 mph100%30.36 "Hg6 mi
5:50 AM36 °FFog.3 mph100%30.36 "Hg4 mi
5:20 AM36 °FFog.3 mph100%30.36 "Hg4 mi
4:50 AM36 °FFog.3 mph100%30.36 "Hg5 mi
4:20 AM36 °FClear.3 mph100%30.33 "Hg10 mi
3:50 AM36 °FPassing clouds.5 mph100%30.33 "HgN/A
3:20 AM36 °FClear.3 mph100%30.33 "Hg10 mi
2:50 AM37 °FClear.3 mph93%30.33 "Hg10 mi
2:20 AM36 °FClear.5 mph100%30.33 "Hg10 mi
1:50 AM36 °FClear.6 mph100%30.33 "Hg10 mi
12:50 AM37 °FClear.5 mph93%30.33 "Hg10 mi
12:20 AM41 °FClear.3 mph87%30.33 "Hg10 mi
11:50 PM
Tue, May 3
41 °FClear.6 mph87%30.30 "Hg10 mi
11:20 PM43 °FClear.8 mph87%30.30 "Hg10 mi
10:50 PM43 °FClear.8 mph87%30.30 "Hg10 mi
10:20 PM45 °FClear.8 mph81%30.27 "Hg10 mi
9:50 PM46 °FSunny.9 mph82%30.27 "Hg10 mi
9:20 PM48 °FSunny.9 mph76%30.24 "Hg10 mi
8:50 PM48 °FPassing clouds.8 mph71%30.24 "HgN/A
8:20 PM50 °FPassing clouds.10 mph67%30.21 "HgN/A
7:50 PM52 °FPassing clouds.14 mph62%30.21 "HgN/A
7:20 PM54 °FScattered clouds.14 mph63%30.18 "HgN/A
6:50 PM54 °FScattered clouds.16 mph67%30.18 "HgN/A
6:20 PM54 °FScattered clouds.7 mph77%30.18 "HgN/A
5:50 PM54 °FScattered clouds.9 mph72%30.18 "HgN/A
5:20 PM52 °FSprinkles. Broken clouds.9 mph82%30.18 "HgN/A
4:50 PM54 °FPartly sunny.8 mph72%30.15 "HgN/A
4:20 PM54 °FPartly sunny.8 mph72%30.15 "HgN/A
3:50 PM54 °FBroken clouds.14 mph72%30.15 "HgN/A
3:20 PM55 °FScattered clouds.7 mph77%30.15 "HgN/A
2:50 PM52 °FPartly sunny.7 mph77%30.15 "HgN/A
2:20 PM50 °FSprinkles. Broken clouds.10 mph88%30.15 "HgN/A
1:20 PM52 °FBroken clouds.9 mph88%30.12 "HgN/A
12:50 PM50 °FBroken clouds.9 mph94%30.12 "HgN/A
12:20 PM48 °FLight rain. Broken clouds.10 mph94%30.12 "HgN/A
11:50 AM48 °FLight rain. Broken clouds.13 mph94%30.12 "HgN/A
11:20 AM48 °FLight rain. Broken clouds.15 mph94%30.09 "HgN/A
Weather by CustomWeather, © 2016

See weather overviewHow to use our weather pages